Flag for Monaco Weather past 2 weeks in Monaco, Monaco

Now
72 °F

Sunny.


Feels Like: 77 °F
Forecast: 60 / 74 °F
Wind: 8 mph from West

Location: Nice Airport

Current Time: Sep 5, 2015 at 9:56:18 AM

Latest Report: Sep 5, 2015 at 9:30 AM


Visibility: 10 mi

Pressure: 29.83 "Hg

Humidity: 50%

Dew point: 52 °F

Location of MonacoLocation

Historic Weather in Monaco — Graph

°F

Monaco temperature yesterday

Maximum temperature yesterday: 79 °F (at 4:30 PM)
Minimum temperature yesterday: 66 °F (at 7:00 AM)
Average temperature yesterday: 73 °F

Past Weeks' High & Low Weather Summary

 TemperatureHumidityPressure
High84 °F (Aug 29, 11:00 AM)88% (Aug 24, 11:00 PM)30.18 "Hg (Aug 24, 11:00 PM)
Low64 °F (Aug 25, 7:30 AM)37% (Aug 29, 11:00 AM)29.80 "Hg (Aug 23, 7:30 PM)
Average75 °F61%29.98 "Hg
* Reported Aug 21 9:00 AM — Sep 5 9:00 AM, Monaco, Weather by CustomWeather, © 2015

Note: Actual official high and low records may vary slightly from our data, if they occured in-between our weather recording intervals... More about our weather records

Advertising

Monaco weather history for previous 24 hours

 ConditionsComfort  
Time TempWeatherWind HumidityBarometerVisibility
9:00 AM
Sat, Sep 5
70 °FSunny.9 mph57%29.83 "Hg10 mi
8:30 AM68 °FPassing clouds.8 mph60%29.83 "HgN/A
8:00 AM68 °FPassing clouds.6 mph53%29.83 "HgN/A
7:30 AM68 °FPassing clouds.7 mph53%29.83 "HgN/A
7:00 AM68 °FPassing clouds.7 mph56%29.80 "HgN/A
6:30 AM68 °FPassing clouds.7 mph53%29.80 "HgN/A
6:00 AM68 °FPassing clouds.7 mph56%29.80 "HgN/A
5:30 AM68 °FPassing clouds.3 mph56%29.80 "HgN/A
5:00 AM70 °FPassing clouds.9 mph53%29.83 "HgN/A
4:30 AM70 °FPassing clouds.7 mph53%29.83 "HgN/A
4:00 AM70 °FPassing clouds.5 mph60%29.83 "HgN/A
3:30 AM70 °FPassing clouds.6 mph53%29.83 "HgN/A
3:00 AM70 °FPassing clouds.5 mph53%29.83 "HgN/A
2:00 AM72 °FPassing clouds.7 mph50%29.83 "HgN/A
1:30 AM72 °FClear.9 mph50%29.83 "Hg10 mi
1:00 AM70 °FClear.8 mph53%29.83 "Hg10 mi
12:30 AM70 °FClear.7 mph53%29.83 "Hg10 mi
12:00 AM70 °FClear.8 mph53%29.86 "Hg10 mi
11:30 PM
Fri, Sep 4
70 °FClear.7 mph57%29.86 "Hg10 mi
11:00 PM70 °FClear.8 mph57%29.86 "Hg10 mi
10:30 PM70 °FClear.7 mph57%29.86 "Hg10 mi
10:00 PM73 °FPassing clouds.3 mph53%29.86 "HgN/A
9:30 PM73 °FClear.6 mph53%29.86 "Hg10 mi
9:00 PM75 °FSunny.2 mph47%29.83 "Hg10 mi
8:30 PM75 °FSunny.2 mph50%29.83 "Hg10 mi
8:00 PM77 °FSunny.5 mph44%29.83 "Hg10 mi
7:30 PM77 °FSunny.No wind47%29.83 "Hg10 mi
7:00 PM77 °FPartly sunny.1 mph44%29.83 "HgN/A
6:30 PM79 °FPartly sunny.2 mph42%29.86 "HgN/A
6:00 PM79 °FPartly sunny.3 mph45%29.86 "HgN/A
5:00 PM79 °FPartly sunny.7 mph45%29.86 "HgN/A
4:30 PM79 °FPartly sunny.12 mph45%29.86 "HgN/A
4:00 PM77 °FPartly sunny.8 mph54%29.89 "HgN/A
3:00 PM75 °FPartly sunny.6 mph57%29.89 "HgN/A
2:30 PM75 °FBroken clouds.8 mph65%29.89 "HgN/A
2:00 PM75 °FBroken clouds.9 mph65%29.89 "HgN/A
1:30 PM77 °FBroken clouds.6 mph61%29.89 "HgN/A
1:00 PM77 °FPartly sunny.3 mph61%29.89 "HgN/A
12:30 PM77 °FPartly sunny.2 mph57%29.89 "HgN/A
12:00 PM77 °FPartly sunny.2 mph57%29.89 "HgN/A
11:30 AM77 °FPartly sunny.3 mph57%29.92 "HgN/A
11:00 AM77 °FPartly sunny.2 mph57%29.89 "HgN/A
10:30 AM77 °FPartly sunny.3 mph42%29.89 "HgN/A
9:30 AM73 °FSunny.10 mph44%29.86 "Hg10 mi
9:00 AM70 °FSunny.12 mph50%29.89 "Hg10 mi
Weather by CustomWeather, © 2015

See weather overviewHow to use our weather pages